User: anonymous   Login
Location: El Centro
(32.7920°N, 115.5620°W)
Time: 01:24:44
(UTC-07:00)
Language:

Hamsat - Orbit

View from above orbital plane
View from above orbital plane
View from above satellite
View from above satellite

Ground track
Ground track

The orbit data is extracted from the following two-line orbital elements,

1 28650U 05017B   16207.52150824  .00000463  00000-0  55501-4 0  9990
2 28650  97.6105 187.8381 0024902 129.8819 230.4593 14.88337975607578
Epoch (UTC): 25 July 2016 12:30:58
Eccentricity: 0.0024902
inclination: 97.6105°
perigee height: 586 km
apogee height: 620 km
right ascension of ascending node: 187.8381°
argument of perigee: 129.8819°
revolutions per day: 14.88337975
mean anomaly at epoch: 230.4593°
orbit number at epoch: 60757

The dashed part of the orbit path shows where the satellite is in the earth's shadow,  

DLR